Tracking 20942 objects as of 4-Jul-2020
HD Live streaming from Space Station
objects crossing your sky now

SBS 2

Track SBS 2 now!
SBS 2 is classified as:


NORAD ID: 12855
Int'l Code: 1981-096A
Perigee: 35,813.2 km
Apogee: 35,855.3 km
Inclination: 13.6 °
Period: 1,438.2 minutes
Semi major axis: 42205 km
RCS: 7.6855 m2 (large)
Launch date: September 24, 1981
Source: United States (US)
Launch site: AIR FORCE EASTERN TEST RANGE (AFETR)
aabbcc
Your satellite tracking list
Your tracking list is empty




NASA's NSSDC Master Catalog

Two Line Element Set (TLE):
1 12855U 81096A   20185.57010182  .00000115  00000-0  00000+0 0  9991
2 12855  13.5705 338.7959 0004995 136.4519  48.9503  1.00127464 96788
Source of the keplerian elements: AFSPC